FW0065 Weather Reports


time (UTC)temp
F
wind
direction
speed
knots
gust
knots
rain 1hr
in
rain 24hr
in
rain mn
in
humidity
%
barometer
mb
20260510022005 73 22 0.9 1.7 0.00 0.00 0.00 34 1027.5
20260510021005 74 159 0.9 2.6 0.00 0.00 0.00 35 1027.7
20260510020005 73 40 0.9 1.7 0.00 0.00 0.00 35 1027.9
20260510015026 74 97 0.0 1.7 0.00 0.00 0.00 36 1028.0
20260510014005 74 43 0.9 2.6 0.00 0.00 0.00 34 1028.2
20260510013005 73 32 0.0 1.7 0.00 0.00 0.00 38 1028.4
20260510012006 72 284 0.9 4.3 0.00 0.00 0.00 40 1028.7
20260510011026 72 317 0.9 5.2 0.00 0.00 0.00 39 1028.8
20260510010025 72 316 0.9 2.6 0.00 0.00 0.00 41 1029.0
20260510005005 71 328 0.0 2.6 0.00 0.00 0.00 41 1029.0
20260510004027 70 285 0.9 4.3 0.00 0.00 0.00 44 1029.1
20260510003005 70 354 0.0 2.6 0.00 0.00 0.00 44 1029.3
20260510002004 68 309 0.9 1.7 0.00 0.00 0.00 46 1029.2
20260510001027 68 311 0.9 3.5 0.00 0.00 0.00 48 1029.3
20260510000026 68 25 0.0 1.7 0.00 0.00 0.00 49 1029.3
20260509235006 67 49 0.0 1.7 0.00 0.00 0.00 50 1029.3
20260509234005 65 112 0.0 0.9 0.00 0.00 0.00 53 1029.1
20260509233006 64 207 0.9 2.6 0.00 0.00 0.00 54 1029.1
20260509232005 63 204 0.0 1.7 0.00 0.00 0.00 58 1029.0
20260509231025 61 199 0.0 1.7 0.00 0.00 0.00 60 1029.1
20260509230007 60 190 0.0 1.7 0.00 0.00 0.00 62 1029.2
20260509225026 58 184 0.0 1.7 0.00 0.00 0.00 64 1029.2
20260509224026 57 183 0.0 0.9 0.00 0.00 0.00 66 1029.2
20260509223006 55 182 0.0 0.9 0.00 0.00 0.00 68 1029.2
20260509222004 53 180 0.0 1.7 0.00 0.00 0.00 72 1029.0
20260509221005 51 182 0.0 3.5 0.00 0.00 0.00 74 1028.9
20260509220004 49 176 0.9 1.7 0.00 0.00 0.00 78 1028.9
20260509215005 47 181 0.9 1.7 0.00 0.00 0.00 80 1028.9
20260509214005 45 0 0.0 0.0 0.00 0.00 0.00 83 1028.9
20260509213006 43 0 0.0 0.0 0.00 0.00 0.00 88 1028.9
20260509212025 41 0 0.0 0.0 0.00 0.00 0.00 90 1028.7
20260509211006 39 0 0.0 0.0 0.00 0.00 0.00 90 1028.4
20260509210005 37 207 0.0 0.9 0.00 0.00 0.00 91 1028.4
20260509205006 36 0 0.0 0.0 0.00 0.00 0.00 90 1028.3
20260509204004 36 0 0.0 0.0 0.00 0.00 0.00 90 1028.2
20260509203005 36 0 0.0 0.0 0.00 0.00 0.00 90 1028.1
20260509202025 36 0 0.0 0.0 0.00 0.00 0.00 90 1027.9
20260509201005 36 0 0.0 0.0 0.00 0.00 0.00 90 1027.9
20260509200005 36 0 0.0 0.0 0.00 0.00 0.00 89 1027.7
20260509195004 36 0 0.0 0.0 0.00 0.00 0.00 89 1027.6
20260509194004 36 0 0.0 0.0 0.00 0.00 0.00 89 1027.4
20260509193004 36 0 0.0 0.0 0.00 0.00 0.00 89 1027.3
20260509192005 36 0 0.0 0.0 0.00 0.00 0.00 89 1027.3
20260509191005 37 0 0.0 0.0 0.00 0.00 0.00 88 1027.1
20260509190006 37 0 0.0 0.0 0.00 0.00 0.00 88 1027.0
20260509185004 37 0 0.0 0.0 0.00 0.00 0.00 87 1026.9
20260509184025 37 0 0.0 0.0 0.00 0.00 0.00 87 1026.7
20260509183005 37 0 0.0 0.0 0.00 0.00 0.00 87 1026.7
20260509182004 37 0 0.0 0.0 0.00 0.00 0.00 86 1026.7
20260509181006 37 0 0.0 0.0 0.00 0.00 0.00 86 1026.6
20260509180007 37 0 0.0 0.0 0.00 0.00 0.00 86 1026.4
20260509175004 37 0 0.0 0.0 0.00 0.00 0.00 85 1026.4
20260509174025 37 0 0.0 0.0 0.00 0.00 0.00 85 1026.4
20260509173004 38 0 0.0 0.0 0.00 0.00 0.00 86 1026.4
20260509172004 38 0 0.0 0.0 0.00 0.00 0.00 85 1026.3
20260509171004 38 0 0.0 0.0 0.00 0.00 0.00 85 1026.2
20260509170004 38 0 0.0 0.0 0.00 0.00 0.00 84 1026.2
20260509165006 38 0 0.0 0.0 0.00 0.00 0.00 84 1026.2
20260509164004 38 0 0.0 0.0 0.00 0.00 0.00 83 1026.3
20260509163027 38 0 0.0 0.0 0.00 0.00 0.00 83 1026.3
20260509162004 38 0 0.0 0.0 0.00 0.00 0.00 82 1026.4
20260509161004 39 0 0.0 0.0 0.00 0.00 0.00 82 1026.4
20260509160006 39 0 0.0 0.0 0.00 0.00 0.00 82 1026.3
20260509155004 39 0 0.0 0.0 0.00 0.00 0.00 82 1026.3
20260509154004 39 0 0.0 0.0 0.00 0.00 0.00 81 1026.3
20260509153004 39 207 0.0 1.7 0.00 0.00 0.00 81 1026.4
20260509152004 40 201 0.0 1.7 0.00 0.00 0.00 80 1026.4
20260509151025 40 197 0.0 0.9 0.00 0.00 0.00 80 1026.4
20260509150006 40 204 0.0 0.9 0.00 0.00 0.00 80 1026.4
20260509145006 40 211 0.0 1.7 0.00 0.00 0.00 80 1026.4
20260509144004 40 221 0.0 0.9 0.00 0.00 0.00 80 1026.4
20260509143004 40 0 0.0 0.0 0.00 0.00 0.00 80 1026.4
20260509142006 40 226 0.0 0.9 0.00 0.00 0.00 80 1026.4
20260509141004 40 0 0.0 0.0 0.00 0.00 0.00 79 1026.4
20260509140005 41 0 0.0 0.0 0.00 0.00 0.00 78 1026.4
20260509135004 41 0 0.0 0.0 0.00 0.00 0.00 78 1026.4
20260509134005 41 0 0.0 0.0 0.00 0.00 0.00 77 1026.3
20260509133006 41 0 0.0 0.0 0.00 0.00 0.00 76 1026.4
20260509132004 42 226 0.0 0.9 0.00 0.00 0.00 76 1026.4
20260509131004 42 225 0.0 0.9 0.00 0.00 0.00 76 1026.3
20260509130005 43 225 0.0 0.9 0.00 0.00 0.00 76 1026.3
20260509125004 43 0 0.0 0.0 0.00 0.00 0.00 75 1026.2
20260509124025 43 0 0.0 0.0 0.00 0.00 0.00 74 1026.1
20260509123006 44 0 0.0 0.0 0.00 0.00 0.00 73 1026.0
20260509122004 44 0 0.0 0.0 0.00 0.00 0.00 72 1025.9
20260509121004 44 0 0.0 0.0 0.00 0.00 0.00 71 1025.9
20260509120004 44 0 0.0 0.0 0.00 0.00 0.00 71 1025.9
20260509115006 45 226 0.0 0.9 0.00 0.00 0.00 69 1025.7
20260509114004 45 0 0.0 0.0 0.00 0.00 0.00 68 1025.7
20260509113004 46 230 0.0 1.7 0.00 0.00 0.00 68 1025.7
20260509112005 46 233 0.0 0.9 0.00 0.00 0.00 66 1025.6
20260509111025 47 238 0.9 1.7 0.00 0.00 0.00 65 1025.6
20260509110004 47 273 0.0 0.9 0.00 0.00 0.00 65 1025.6
20260509105004 47 291 0.0 0.9 0.00 0.00 0.00 66 1025.6
20260509104025 47 0 0.0 0.0 0.00 0.00 0.00 68 1025.6
20260509103006 47 0 0.0 0.0 0.00 0.00 0.00 65 1025.8
20260509102025 48 0 0.0 0.0 0.00 0.00 0.00 63 1025.6
20260509101004 48 0 0.0 0.0 0.00 0.00 0.00 62 1025.6
20260509100005 49 294 0.0 0.9 0.00 0.00 0.00 62 1025.5
20260509095026 49 296 0.0 0.9 0.00 0.00 0.00 62 1025.4
20260509094004 50 296 0.0 0.9 0.00 0.00 0.00 61 1025.2
20260509093004 50 0 0.0 0.0 0.00 0.00 0.00 59 1025.2
20260509092004 51 0 0.0 0.0 0.00 0.00 0.00 60 1025.1
20260509091004 52 0 0.0 0.0 0.00 0.00 0.00 58 1025.0
20260509090005 52 303 0.0 0.9 0.00 0.00 0.00 57 1024.9
20260509085004 53 306 0.0 0.9 0.00 0.00 0.00 56 1024.7
20260509084025 54 306 0.0 0.9 0.00 0.00 0.00 55 1024.6
20260509083025 55 313 0.0 1.7 0.00 0.00 0.00 55 1024.4
20260509082004 56 0 0.0 0.0 0.00 0.00 0.00 53 1024.2
20260509081004 56 0 0.0 0.0 0.00 0.00 0.00 52 1024.0
20260509080025 57 0 0.0 0.0 0.00 0.00 0.00 50 1023.9
20260509075004 59 0 0.0 0.0 0.00 0.00 0.00 47 1023.7
20260509074004 60 0 0.0 0.0 0.00 0.00 0.00 46 1023.6
20260509073005 61 0 0.0 0.0 0.00 0.00 0.00 43 1023.5
20260509072024 64 314 0.0 1.7 0.00 0.00 0.00 40 1023.4
20260509071003 66 295 0.0 1.7 0.00 0.00 0.00 37 1023.3
20260509070004 67 293 0.0 2.6 0.00 0.00 0.00 35 1023.2
20260509065004 68 350 0.0 1.7 0.00 0.00 0.00 35 1023.1
20260509064004 68 346 0.0 2.6 0.00 0.00 0.00 34 1023.1
20260509063004 69 330 0.9 2.6 0.00 0.00 0.00 34 1022.9
20260509062004 69 3 0.0 1.7 0.00 0.00 0.00 33 1022.8
20260509061025 70 271 0.9 1.7 0.00 0.00 0.00 32 1022.7
20260509060004 70 311 0.9 1.7 0.00 0.00 0.00 33 1022.7
20260509055004 70 298 0.9 3.5 0.00 0.00 0.00 32 1022.7
20260509054005 71 324 0.0 0.9 0.00 0.00 0.00 32 1022.6
20260509053004 71 20 0.0 1.7 0.00 0.00 0.00 32 1022.6
20260509052025 70 32 0.0 1.7 0.00 0.00 0.00 33 1022.5
20260509051004 71 334 0.0 1.7 0.00 0.00 0.00 31 1022.5
20260509050005 72 341 0.9 2.6 0.00 0.00 0.00 31 1022.5
20260509045005 73 27 0.9 1.7 0.00 0.00 0.00 32 1022.5
20260509044005 73 273 0.9 1.7 0.00 0.00 0.00 31 1022.6
20260509043005 74 345 0.0 1.7 0.00 0.00 0.00 31 1022.6
20260509042026 73 357 0.9 1.7 0.00 0.00 0.00 31 1022.6
20260509041004 74 317 0.9 3.5 0.00 0.00 0.00 31 1022.6
20260509040004 73 340 0.9 3.5 0.00 0.00 0.00 30 1022.6
20260509035025 73 273 0.9 6.1 0.00 0.00 0.00 32 1022.6
20260509034026 73 327 0.9 3.5 0.00 0.00 0.00 31 1022.6
20260509033005 73 253 1.7 5.2 0.00 0.00 0.00 34 1022.7
20260509032005 73 336 0.0 3.5 0.00 0.00 0.00 33 1022.7
20260509031007 74 303 0.9 3.5 0.00 0.00 0.00 33 1022.8
20260509030005 73 272 0.9 6.1 0.00 0.00 0.00 34 1023.0
20260509025005 73 331 0.0 4.3 0.00 0.00 0.00 34 1023.1
20260509024005 73 299 0.9 4.3 0.00 0.00 0.00 34 1023.3
20260509023005 72 306 0.9 5.2 0.00 0.00 0.00 36 1023.5